Time,TemperatureF,DewpointF,PressureIn,WindDirection,WindDirectionDegrees,WindSpeedMPH,WindSpeedGustMPH,Humidity,HourlyPrecipIn,Conditions,Clouds,dailyrainin,SoftwareType,DateUTC
2013-01-30 00:01:00,-6.1,-10.9,29.92,NE,40,0.0,0.0,79,0.00,,,0.00,LWC V2.00 B2112,2013-01-30 09:01:00,
2013-01-30 00:06:00,-6.1,-11.1,29.92,NE,40,0.0,0.0,78,0.00,,,0.00,LWC V2.00 B2112,2013-01-30 09:06:00,
2013-01-30 00:11:00,-6.1,-11.1,29.92,NE,40,0.0,0.0,78,0.00,,,0.00,LWC V2.00 B2112,2013-01-30 09:11:00,
2013-01-30 00:16:00,-6.0,-11.0,29.92,NE,40,0.0,0.0,78,0.00,,,0.00,LWC V2.00 B2112,2013-01-30 09:16:00,
2013-01-30 00:21:00,-6.0,-11.0,29.92,NE,40,0.0,0.0,78,0.00,,,0.00,LWC V2.00 B2112,2013-01-30 09:21:00,
2013-01-30 00:26:00,-6.0,-10.8,29.92,NE,40,0.0,0.0,79,0.00,,,0.00,LWC V2.00 B2112,2013-01-30 09:26:00,
2013-01-30 00:31:00,-6.1,-10.9,29.92,WNW,294,0.0,0.0,79,0.00,,,0.00,LWC V2.00 B2112,2013-01-30 09:31:00,
2013-01-30 00:36:00,-6.1,-10.9,29.92,NNW,331,0.0,0.0,79,0.00,,,0.00,LWC V2.00 B2112,2013-01-30 09:36:00,
2013-01-30 00:41:00,-6.1,-10.9,29.92,NE,37,0.0,0.0,79,0.00,,,0.00,LWC V2.00 B2112,2013-01-30 09:41:00,
2013-01-30 00:46:00,-6.1,-10.9,29.92,NE,37,0.0,0.0,79,0.00,,,0.00,LWC V2.00 B2112,2013-01-30 09:46:00,
2013-01-30 00:51:00,-6.2,-11.0,29.92,NE,38,0.0,0.0,79,0.00,,,0.00,LWC V2.00 B2112,2013-01-30 09:51:00,
2013-01-30 00:56:00,-6.1,-10.6,29.92,NE,37,0.0,0.0,80,0.00,,,0.00,LWC V2.00 B2112,2013-01-30 09:56:00,
2013-01-30 01:01:00,-6.2,-10.7,29.92,NE,37,0.0,0.0,80,0.00,,,0.00,LWC V2.00 B2112,2013-01-30 10:01:00,
2013-01-30 01:06:00,-6.2,-10.7,29.92,NE,38,0.0,0.0,80,0.00,,,0.00,LWC V2.00 B2112,2013-01-30 10:06:00,
2013-01-30 01:11:00,-6.2,-10.7,29.92,NE,38,0.0,0.0,80,0.00,,,0.00,LWC V2.00 B2112,2013-01-30 10:11:00,
2013-01-30 01:16:00,-6.2,-10.7,29.93,NE,38,0.0,0.0,80,0.00,,,0.00,LWC V2.00 B2112,2013-01-30 10:16:00,
2013-01-30 01:21:00,-6.2,-10.7,29.92,NE,44,0.0,0.0,80,0.00,,,0.00,LWC V2.00 B2112,2013-01-30 10:21:00,
2013-01-30 01:26:00,-6.2,-10.5,29.92,NE,44,0.0,0.0,81,0.00,,,0.00,LWC V2.00 B2112,2013-01-30 10:26:00,
2013-01-30 01:31:00,-6.2,-10.5,29.92,NE,44,0.0,0.0,81,0.00,,,0.00,LWC V2.00 B2112,2013-01-30 10:31:00,
2013-01-30 01:36:00,-6.2,-10.5,29.92,NNW,343,0.0,0.0,81,0.00,,,0.00,LWC V2.00 B2112,2013-01-30 10:36:00,
2013-01-30 01:41:00,-6.2,-10.5,29.92,NNW,344,0.0,0.0,81,0.00,,,0.00,LWC V2.00 B2112,2013-01-30 10:41:00,
2013-01-30 01:46:00,-6.2,-10.5,29.92,NNW,344,0.0,0.0,81,0.00,,,0.00,LWC V2.00 B2112,2013-01-30 10:46:00,
2013-01-30 01:51:00,-6.2,-10.5,29.92,NNW,344,0.0,0.0,81,0.00,,,0.00,LWC V2.00 B2112,2013-01-30 10:51:00,
2013-01-30 01:56:00,-6.1,-10.4,29.92,NNW,343,0.0,0.0,81,0.00,,,0.00,LWC V2.00 B2112,2013-01-30 10:56:00,
2013-01-30 02:01:00,-6.1,-10.4,29.92,NNW,343,0.0,0.0,81,0.00,,,0.00,LWC V2.00 B2112,2013-01-30 11:01:00,
2013-01-30 02:06:00,-6.1,-10.4,29.92,NNW,343,0.0,0.0,81,0.00,,,0.00,LWC V2.00 B2112,2013-01-30 11:06:00,
2013-01-30 02:11:00,-5.9,-10.2,29.93,NNW,344,0.0,0.0,81,0.00,,,0.00,LWC V2.00 B2112,2013-01-30 11:11:00,
2013-01-30 02:16:00,-5.8,-10.1,29.93,NNW,343,0.0,0.0,81,0.00,,,0.00,LWC V2.00 B2112,2013-01-30 11:16:00,
2013-01-30 02:21:00,-5.8,-10.1,29.94,NNW,343,0.0,0.0,81,0.00,,,0.00,LWC V2.00 B2112,2013-01-30 11:21:00,
2013-01-30 02:26:00,-5.7,-10.0,29.93,NNW,343,0.0,0.0,81,0.00,,,0.00,LWC V2.00 B2112,2013-01-30 11:26:00,
2013-01-30 02:31:00,-5.7,-10.0,29.92,NNE,27,0.0,0.0,81,0.00,,,0.00,LWC V2.00 B2112,2013-01-30 11:31:00,
2013-01-30 02:36:00,-5.7,-9.7,29.92,NNE,27,0.0,0.0,82,0.00,,,0.00,LWC V2.00 B2112,2013-01-30 11:36:00,
2013-01-30 02:41:00,-5.7,-9.7,29.92,NNE,27,0.0,0.0,82,0.00,,,0.00,LWC V2.00 B2112,2013-01-30 11:41:00,
2013-01-30 02:46:00,-5.8,-9.8,29.93,NNE,26,0.0,0.0,82,0.00,,,0.00,LWC V2.00 B2112,2013-01-30 11:46:00,
2013-01-30 02:51:00,-5.8,-9.8,29.93,NNE,26,0.0,0.0,82,0.00,,,0.00,LWC V2.00 B2112,2013-01-30 11:51:00,
2013-01-30 02:56:00,-5.9,-9.9,29.93,NNE,27,0.0,0.0,82,0.00,,,0.00,LWC V2.00 B2112,2013-01-30 11:56:00,
2013-01-30 03:01:00,-6.1,-10.1,29.93,WNW,286,0.0,0.0,82,0.00,,,0.00,LWC V2.00 B2112,2013-01-30 12:01:00,
2013-01-30 03:06:00,-6.2,-10.2,29.93,WNW,286,0.0,0.0,82,0.00,,,0.00,LWC V2.00 B2112,2013-01-30 12:06:00,
2013-01-30 03:11:00,-6.5,-10.8,29.94,WNW,286,0.0,0.0,81,0.00,,,0.00,LWC V2.00 B2112,2013-01-30 12:11:00,
2013-01-30 03:16:00,-6.7,-10.7,29.94,WNW,286,0.0,0.0,82,0.00,,,0.00,LWC V2.00 B2112,2013-01-30 12:16:00,
2013-01-30 03:21:00,-6.6,-10.6,29.94,WNW,286,0.0,0.0,82,0.00,,,0.00,LWC V2.00 B2112,2013-01-30 12:21:00,
2013-01-30 03:26:00,-6.6,-10.6,29.94,WNW,286,0.0,0.0,82,0.00,,,0.00,LWC V2.00 B2112,2013-01-30 12:26:00,
2013-01-30 03:31:00,-6.4,-10.2,29.93,WNW,286,0.0,0.0,83,0.00,,,0.00,LWC V2.00 B2112,2013-01-30 12:31:00,
2013-01-30 03:36:00,-6.2,-10.0,29.93,NW,322,0.0,0.0,83,0.00,,,0.00,LWC V2.00 B2112,2013-01-30 12:36:00,
2013-01-30 03:41:00,-5.9,-9.7,29.93,NW,321,0.0,0.0,83,0.00,,,0.00,LWC V2.00 B2112,2013-01-30 12:41:00,
2013-01-30 03:46:00,-5.6,-9.4,29.93,North,0,0.0,0.0,83,0.00,,,0.00,LWC V2.00 B2112,2013-01-30 12:46:00,
2013-01-30 03:51:00,-5.5,-9.5,29.92,NE,48,0.0,0.0,82,0.00,,,0.00,LWC V2.00 B2112,2013-01-30 12:51:00,
2013-01-30 03:56:00,-5.4,-9.5,29.92,NE,49,0.0,0.0,82,0.00,,,0.00,LWC V2.00 B2112,2013-01-30 12:56:00,
2013-01-30 04:01:00,-5.3,-9.4,29.92,ENE,60,0.0,0.0,82,0.00,,,0.00,LWC V2.00 B2112,2013-01-30 13:01:00,
2013-01-30 04:06:00,-5.1,-9.2,29.92,ENE,59,0.0,0.0,82,0.00,,,0.00,LWC V2.00 B2112,2013-01-30 13:06:00,
2013-01-30 04:11:00,-5.1,-9.4,29.93,ENE,59,0.0,0.0,81,0.00,,,0.00,LWC V2.00 B2112,2013-01-30 13:11:00,
2013-01-30 04:16:00,-5.0,-9.3,29.93,ENE,59,0.0,0.0,81,0.00,,,0.00,LWC V2.00 B2112,2013-01-30 13:16:00,
2013-01-30 04:21:00,-4.9,-9.2,29.93,ENE,59,0.0,0.0,81,0.00,,,0.00,LWC V2.00 B2112,2013-01-30 13:21:00,
2013-01-30 04:26:00,-4.9,-9.2,29.93,ENE,59,0.0,0.0,81,0.00,,,0.00,LWC V2.00 B2112,2013-01-30 13:26:00,
2013-01-30 04:31:00,-4.9,-9.2,29.93,ENE,59,0.0,0.0,81,0.00,,,0.00,LWC V2.00 B2112,2013-01-30 13:31:00,
2013-01-30 04:36:00,-4.9,-9.2,29.93,ENE,59,0.0,0.0,81,0.00,,,0.00,LWC V2.00 B2112,2013-01-30 13:36:00,
2013-01-30 04:41:00,-4.9,-9.2,29.93,ENE,59,0.0,0.0,81,0.00,,,0.00,LWC V2.00 B2112,2013-01-30 13:41:00,
2013-01-30 04:46:00,-4.9,-9.2,29.93,ENE,59,0.0,0.0,81,0.00,,,0.00,LWC V2.00 B2112,2013-01-30 13:46:00,
2013-01-30 04:51:00,-4.8,-9.1,29.92,ENE,59,0.0,0.0,81,0.00,,,0.00,LWC V2.00 B2112,2013-01-30 13:51:00,
2013-01-30 04:56:00,-4.7,-9.0,29.92,ENE,59,0.0,0.0,81,0.00,,,0.00,LWC V2.00 B2112,2013-01-30 13:56:00,
2013-01-30 05:01:00,-4.6,-8.9,29.92,ENE,59,0.0,0.0,81,0.00,,,0.00,LWC V2.00 B2112,2013-01-30 14:01:00,
2013-01-30 05:06:00,-4.6,-8.9,29.92,ENE,59,0.0,0.0,81,0.00,,,0.00,LWC V2.00 B2112,2013-01-30 14:06:00,
2013-01-30 05:11:00,-4.5,-8.8,29.92,ENE,59,0.0,0.0,81,0.00,,,0.00,LWC V2.00 B2112,2013-01-30 14:11:00,
2013-01-30 05:16:00,-4.5,-8.8,29.92,ENE,59,0.0,0.0,81,0.00,,,0.00,LWC V2.00 B2112,2013-01-30 14:16:00,
2013-01-30 05:21:00,-4.4,-9.0,29.91,ENE,59,0.0,0.0,80,0.00,,,0.00,LWC V2.00 B2112,2013-01-30 14:21:00,
2013-01-30 05:26:00,-4.3,-8.9,29.91,ENE,59,0.0,0.0,80,0.00,,,0.00,LWC V2.00 B2112,2013-01-30 14:26:00,
2013-01-30 05:31:00,-4.3,-8.9,29.91,ENE,59,0.0,0.0,80,0.00,,,0.00,LWC V2.00 B2112,2013-01-30 14:31:00,
2013-01-30 05:36:00,-4.2,-8.8,29.91,ENE,59,0.0,0.0,80,0.00,,,0.00,LWC V2.00 B2112,2013-01-30 14:36:00,
2013-01-30 05:41:00,-4.2,-8.8,29.91,ENE,59,0.0,0.0,80,0.00,,,0.00,LWC V2.00 B2112,2013-01-30 14:41:00,
2013-01-30 05:46:00,-4.1,-8.7,29.91,NW,304,0.0,0.0,80,0.00,,,0.00,LWC V2.00 B2112,2013-01-30 14:46:00,
2013-01-30 05:51:00,-4.1,-8.7,29.91,NW,304,0.0,0.0,80,0.00,,,0.00,LWC V2.00 B2112,2013-01-30 14:51:00,
2013-01-30 05:56:00,-4.1,-8.7,29.91,NW,304,0.0,0.0,80,0.00,,,0.00,LWC V2.00 B2112,2013-01-30 14:56:00,
2013-01-30 06:01:00,-4.0,-8.6,29.91,NW,304,0.0,0.0,80,0.00,,,0.00,LWC V2.00 B2112,2013-01-30 15:01:00,
2013-01-30 06:06:00,-4.0,-8.6,29.91,NW,304,0.0,0.0,80,0.00,,,0.00,LWC V2.00 B2112,2013-01-30 15:06:00,
2013-01-30 06:11:00,-3.9,-8.7,29.91,West,277,0.0,0.0,79,0.00,,,0.00,LWC V2.00 B2112,2013-01-30 15:11:00,
2013-01-30 06:16:00,-3.8,-8.4,29.91,West,277,0.0,0.0,80,0.00,,,0.00,LWC V2.00 B2112,2013-01-30 15:16:00,
2013-01-30 06:21:00,-3.7,-8.3,29.91,West,279,0.0,0.0,80,0.00,,,0.00,LWC V2.00 B2112,2013-01-30 15:21:00,
2013-01-30 06:31:00,-3.6,-8.2,29.91,NW,316,0.0,0.0,80,0.00,,,0.00,LWC V2.00 B2112,2013-01-30 15:31:00,
2013-01-30 06:36:00,-3.4,-8.0,29.90,ENE,69,0.0,0.0,80,0.00,,,0.00,LWC V2.00 B2112,2013-01-30 15:36:00,
2013-01-30 06:41:00,-3.4,-8.0,29.90,ENE,69,0.0,0.0,80,0.00,,,0.00,LWC V2.00 B2112,2013-01-30 15:41:00,
2013-01-30 06:46:00,-3.2,-7.8,29.89,ENE,70,0.0,0.0,80,0.00,,,0.00,LWC V2.00 B2112,2013-01-30 15:46:00,
2013-01-30 06:56:00,-3.0,-7.9,29.89,ENE,69,0.0,0.0,79,0.00,,,0.00,LWC V2.00 B2112,2013-01-30 15:56:00,
2013-01-30 07:01:00,-3.0,-7.6,29.89,ENE,70,0.0,0.0,80,0.00,,,0.00,LWC V2.00 B2112,2013-01-30 16:01:00,
2013-01-30 07:06:00,-2.9,-7.5,29.89,SE,130,0.0,0.0,80,0.00,,,0.00,LWC V2.00 B2112,2013-01-30 16:06:00,
2013-01-30 07:11:00,-3.0,-7.6,29.89,SE,130,0.0,0.0,80,0.00,,,0.00,LWC V2.00 B2112,2013-01-30 16:11:00,
2013-01-30 07:16:00,-3.1,-7.4,29.89,SE,130,0.0,0.0,81,0.00,,,0.00,LWC V2.00 B2112,2013-01-30 16:16:00,
2013-01-30 07:21:00,-3.2,-7.5,29.89,SE,130,0.0,0.0,81,0.00,,,0.00,LWC V2.00 B2112,2013-01-30 16:21:00,
2013-01-30 07:26:00,-3.1,-7.4,29.89,SE,129,0.0,0.0,81,0.00,,,0.00,LWC V2.00 B2112,2013-01-30 16:26:00,
2013-01-30 07:31:00,-3.1,-7.4,29.89,SE,130,0.0,0.0,81,0.00,,,0.00,LWC V2.00 B2112,2013-01-30 16:31:00,
2013-01-30 07:36:00,-3.0,-7.4,29.89,SE,130,0.0,0.0,81,0.00,,,0.00,LWC V2.00 B2112,2013-01-30 16:36:00,
2013-01-30 07:41:00,-2.8,-7.2,29.89,SE,129,0.0,0.0,81,0.00,,,0.00,LWC V2.00 B2112,2013-01-30 16:41:00,
2013-01-30 07:46:00,-2.6,-7.2,29.89,SE,130,0.0,0.0,80,0.00,,,0.00,LWC V2.00 B2112,2013-01-30 16:46:00,
2013-01-30 07:51:00,-2.5,-7.4,29.88,SE,130,0.0,0.0,79,0.00,,,0.00,LWC V2.00 B2112,2013-01-30 16:51:00,
2013-01-30 07:56:00,-2.3,-7.2,29.88,SE,129,0.0,0.0,79,0.00,,,0.00,LWC V2.00 B2112,2013-01-30 16:56:00,
2013-01-30 08:01:00,-2.2,-7.1,29.88,SE,128,0.0,0.0,79,0.00,,,0.00,LWC V2.00 B2112,2013-01-30 17:01:00,
2013-01-30 08:06:00,-2.0,-6.9,29.88,SE,129,0.0,0.0,79,0.00,,,0.00,LWC V2.00 B2112,2013-01-30 17:06:00,
2013-01-30 08:11:00,-2.0,-7.1,29.88,SE,128,0.0,0.0,78,0.00,,,0.00,LWC V2.00 B2112,2013-01-30 17:11:00,
2013-01-30 08:16:00,-1.8,-7.0,29.88,SE,129,0.0,0.0,78,0.00,,,0.00,LWC V2.00 B2112,2013-01-30 17:16:00,
2013-01-30 08:21:00,-1.8,-7.0,29.88,SE,130,0.0,0.0,78,0.00,,,0.00,LWC V2.00 B2112,2013-01-30 17:21:00,
2013-01-30 08:26:00,-1.7,-6.9,29.88,SE,129,0.0,0.0,78,0.00,,,0.00,LWC V2.00 B2112,2013-01-30 17:26:00,
2013-01-30 08:31:00,-1.6,-6.8,29.88,SE,129,0.0,0.0,78,0.00,,,0.00,LWC V2.00 B2112,2013-01-30 17:31:00,
2013-01-30 08:36:00,-1.5,-6.9,29.88,SE,128,0.0,0.0,77,0.00,,,0.00,LWC V2.00 B2112,2013-01-30 17:36:00,
2013-01-30 08:41:00,-1.5,-6.7,29.87,SE,128,0.0,0.0,78,0.00,,,0.00,LWC V2.00 B2112,2013-01-30 17:41:00,
2013-01-30 08:46:00,-1.5,-6.7,29.87,SE,128,0.0,0.0,78,0.00,,,0.00,LWC V2.00 B2112,2013-01-30 17:46:00,
2013-01-30 08:51:00,-1.4,-6.8,29.86,SE,129,0.0,0.0,77,0.00,,,0.00,LWC V2.00 B2112,2013-01-30 17:51:00,
2013-01-30 08:56:00,-1.4,-6.8,29.86,SE,129,0.0,0.0,77,0.00,,,0.00,LWC V2.00 B2112,2013-01-30 17:56:00,
2013-01-30 09:01:00,-1.3,-6.5,29.86,SE,130,0.0,0.0,78,0.00,,,0.00,LWC V2.00 B2112,2013-01-30 18:01:00,
2013-01-30 09:06:00,-1.3,-6.7,29.87,SE,129,0.0,0.0,77,0.00,,,0.00,LWC V2.00 B2112,2013-01-30 18:06:00,
2013-01-30 09:11:00,-1.2,-6.6,29.87,SE,129,0.0,0.0,77,0.00,,,0.00,LWC V2.00 B2112,2013-01-30 18:11:00,
2013-01-30 09:16:00,-1.2,-6.4,29.86,SE,130,0.0,0.0,78,0.00,,,0.00,LWC V2.00 B2112,2013-01-30 18:16:00,
2013-01-30 09:21:00,-1.2,-6.4,29.86,SE,129,0.0,0.0,78,0.00,,,0.00,LWC V2.00 B2112,2013-01-30 18:21:00,
2013-01-30 09:26:00,-1.2,-6.4,29.86,SE,130,0.0,0.0,78,0.00,,,0.00,LWC V2.00 B2112,2013-01-30 18:26:00,
2013-01-30 09:31:00,-1.1,-6.3,29.86,SE,130,0.0,0.0,78,0.00,,,0.00,LWC V2.00 B2112,2013-01-30 18:31:00,
2013-01-30 09:36:00,-1.0,-6.4,29.85,SE,129,0.0,0.0,77,0.00,,,0.00,LWC V2.00 B2112,2013-01-30 18:36:00,
2013-01-30 09:41:00,-0.9,-6.1,29.85,SE,129,0.0,0.0,78,0.00,,,0.00,LWC V2.00 B2112,2013-01-30 18:41:00,
2013-01-30 09:46:00,-0.8,-6.0,29.85,SE,130,0.0,0.0,78,0.00,,,0.00,LWC V2.00 B2112,2013-01-30 18:46:00,
2013-01-30 09:51:00,-0.7,-6.1,29.84,SE,130,0.0,0.0,77,0.00,,,0.00,LWC V2.00 B2112,2013-01-30 18:51:00,
2013-01-30 09:56:00,-0.7,-5.9,29.84,SE,130,0.0,0.0,78,0.00,,,0.00,LWC V2.00 B2112,2013-01-30 18:56:00,
2013-01-30 10:01:00,-0.6,-5.8,29.84,SE,129,0.0,0.0,78,0.00,,,0.00,LWC V2.00 B2112,2013-01-30 19:01:00,
2013-01-30 10:06:00,-0.5,-5.7,29.84,SE,130,0.0,0.0,78,0.00,,,0.00,LWC V2.00 B2112,2013-01-30 19:06:00,
2013-01-30 10:11:00,-0.6,-5.8,29.84,SE,130,0.0,0.0,78,0.00,,,0.00,LWC V2.00 B2112,2013-01-30 19:11:00,
2013-01-30 10:16:00,-0.6,-5.5,29.84,SE,130,0.0,0.0,79,0.00,,,0.00,LWC V2.00 B2112,2013-01-30 19:16:00,
2013-01-30 10:21:00,-0.5,-5.4,29.84,SE,129,0.0,0.0,79,0.00,,,0.00,LWC V2.00 B2112,2013-01-30 19:21:00,
2013-01-30 10:26:00,-0.4,-5.3,29.84,SE,130,0.0,0.0,79,0.00,,,0.00,LWC V2.00 B2112,2013-01-30 19:26:00,
2013-01-30 10:31:00,-0.6,-5.3,29.84,SE,129,0.0,0.0,80,0.00,,,0.00,LWC V2.00 B2112,2013-01-30 19:31:00,
2013-01-30 10:36:00,-0.7,-5.1,29.84,SE,128,0.0,0.0,81,0.00,,,0.00,LWC V2.00 B2112,2013-01-30 19:36:00,
2013-01-30 10:41:00,-0.8,-5.2,29.84,SE,130,0.0,0.0,81,0.00,,,0.00,LWC V2.00 B2112,2013-01-30 19:41:00,
2013-01-30 10:46:00,-0.7,-5.1,29.84,SE,129,0.0,0.0,81,0.00,,,0.00,LWC V2.00 B2112,2013-01-30 19:46:00,
2013-01-30 10:51:00,-0.7,-5.1,29.84,SE,129,0.0,0.0,81,0.00,,,0.00,LWC V2.00 B2112,2013-01-30 19:51:00,
2013-01-30 10:56:00,-0.8,-5.2,29.84,SE,130,0.0,0.0,81,0.00,,,0.00,LWC V2.00 B2112,2013-01-30 19:56:00,
2013-01-30 11:01:00,-0.8,-5.2,29.83,SE,130,0.0,0.0,81,0.00,,,0.00,LWC V2.00 B2112,2013-01-30 20:01:00,
2013-01-30 11:06:00,-0.8,-5.5,29.83,SE,129,0.0,0.0,80,0.00,,,0.00,LWC V2.00 B2112,2013-01-30 20:06:00,
2013-01-30 11:11:00,-0.7,-5.4,29.84,SE,129,0.0,0.0,80,0.00,,,0.00,LWC V2.00 B2112,2013-01-30 20:11:00,
2013-01-30 11:16:00,-0.6,-5.3,29.84,SE,128,0.0,0.0,80,0.00,,,0.00,LWC V2.00 B2112,2013-01-30 20:16:00,
2013-01-30 11:21:00,-0.5,-5.2,29.84,SE,128,0.0,0.0,80,0.00,,,0.00,LWC V2.00 B2112,2013-01-30 20:21:00,
2013-01-30 11:31:00,-0.2,-5.1,29.84,SE,128,0.0,0.0,79,0.00,,,0.00,LWC V2.00 B2112,2013-01-30 20:31:00,
2013-01-30 11:36:00,-0.1,-5.0,29.83,SE,128,0.0,0.0,79,0.00,,,0.00,LWC V2.00 B2112,2013-01-30 20:36:00,
2013-01-30 11:41:00,0.0,-5.2,29.83,WNW,301,0.0,0.0,78,0.00,,,0.00,LWC V2.00 B2112,2013-01-30 20:41:00,
2013-01-30 11:46:00,0.2,-5.0,29.83,ENE,59,0.0,0.0,78,0.00,,,0.00,LWC V2.00 B2112,2013-01-30 20:46:00,
2013-01-30 11:51:00,0.3,-4.9,29.83,NNW,336,0.0,0.0,78,0.00,,,0.00,LWC V2.00 B2112,2013-01-30 20:51:00,
2013-01-30 11:56:00,0.7,-4.5,29.82,NE,44,0.0,0.0,78,0.00,,,0.00,LWC V2.00 B2112,2013-01-30 20:56:00,
2013-01-30 12:01:00,0.8,-4.4,29.82,NNW,331,0.0,0.0,78,0.00,,,0.00,LWC V2.00 B2112,2013-01-30 21:01:00,
2013-01-30 12:06:00,1.0,-4.5,29.82,NNW,331,0.0,0.0,77,0.00,,,0.00,LWC V2.00 B2112,2013-01-30 21:06:00,
2013-01-30 12:11:00,1.2,-4.3,29.81,NNW,331,0.0,0.0,77,0.00,,,0.00,LWC V2.00 B2112,2013-01-30 21:11:00,
2013-01-30 12:16:00,1.4,-4.1,29.81,NNW,331,0.0,0.0,77,0.00,,,0.00,LWC V2.00 B2112,2013-01-30 21:16:00,
2013-01-30 12:21:00,1.7,-3.8,29.81,NNW,331,0.0,0.0,77,0.00,,,0.00,LWC V2.00 B2112,2013-01-30 21:21:00,
2013-01-30 12:26:00,1.9,-3.6,29.80,NNW,331,0.0,0.0,77,0.00,,,0.00,LWC V2.00 B2112,2013-01-30 21:26:00,
2013-01-30 12:31:00,2.1,-3.4,29.80,NNW,331,0.0,0.0,77,0.00,,,0.00,LWC V2.00 B2112,2013-01-30 21:31:00,
2013-01-30 12:36:00,2.4,-3.1,29.80,NNW,331,0.0,0.0,77,0.00,,,0.00,LWC V2.00 B2112,2013-01-30 21:36:00,
2013-01-30 12:41:00,2.5,-3.3,29.80,NNW,331,0.0,0.0,76,0.00,,,0.00,LWC V2.00 B2112,2013-01-30 21:41:00,
2013-01-30 12:46:00,2.5,-3.3,29.80,NNW,331,0.0,0.0,76,0.00,,,0.00,LWC V2.00 B2112,2013-01-30 21:46:00,
2013-01-30 12:51:00,2.5,-3.3,29.80,NNW,331,0.0,0.0,76,0.00,,,0.00,LWC V2.00 B2112,2013-01-30 21:51:00,
2013-01-30 12:56:00,2.6,-3.2,29.79,NNW,331,0.0,0.0,76,0.00,,,0.00,LWC V2.00 B2112,2013-01-30 21:56:00,
2013-01-30 13:01:00,2.8,-3.0,29.79,NNW,331,0.0,0.0,76,0.00,,,0.00,LWC V2.00 B2112,2013-01-30 22:01:00,
2013-01-30 13:06:00,2.9,-2.9,29.79,NE,39,0.0,0.0,76,0.00,,,0.00,LWC V2.00 B2112,2013-01-30 22:06:00,
2013-01-30 13:11:00,3.0,-2.8,29.79,NE,51,0.0,0.0,76,0.00,,,0.00,LWC V2.00 B2112,2013-01-30 22:11:00,
2013-01-30 13:16:00,3.1,-2.7,29.79,NE,51,0.0,0.0,76,0.00,,,0.00,LWC V2.00 B2112,2013-01-30 22:16:00,
2013-01-30 13:21:00,3.3,-2.5,29.78,NE,51,0.0,0.0,76,0.00,,,0.00,LWC V2.00 B2112,2013-01-30 22:21:00,
2013-01-30 13:26:00,3.4,-2.4,29.78,NE,50,0.0,0.0,76,0.00,,,0.00,LWC V2.00 B2112,2013-01-30 22:26:00,
2013-01-30 13:31:00,3.6,-2.2,29.78,NE,51,0.0,0.0,76,0.00,,,0.00,LWC V2.00 B2112,2013-01-30 22:31:00,
2013-01-30 13:36:00,3.7,-2.1,29.78,ESE,115,0.0,0.0,76,0.00,,,0.00,LWC V2.00 B2112,2013-01-30 22:36:00,
2013-01-30 13:41:00,3.9,-1.9,29.77,ESE,116,0.0,0.0,76,0.00,,,0.00,LWC V2.00 B2112,2013-01-30 22:41:00,
2013-01-30 13:46:00,4.0,-2.1,29.78,ESE,116,0.0,0.0,75,0.00,,,0.00,LWC V2.00 B2112,2013-01-30 22:46:00,
2013-01-30 13:51:00,4.0,-2.1,29.77,East,99,0.0,0.0,75,0.00,,,0.00,LWC V2.00 B2112,2013-01-30 22:51:00,
2013-01-30 13:56:00,4.1,-1.8,29.78,West,267,0.0,0.0,76,0.00,,,0.00,LWC V2.00 B2112,2013-01-30 22:56:00,
2013-01-30 14:01:00,4.1,-2.0,29.78,West,269,0.0,0.0,75,0.00,,,0.00,LWC V2.00 B2112,2013-01-30 23:01:00,
2013-01-30 14:06:00,4.3,-1.8,29.77,West,269,0.0,0.0,75,0.00,,,0.00,LWC V2.00 B2112,2013-01-30 23:06:00,
2013-01-30 14:11:00,4.4,-1.7,29.77,NE,49,0.0,0.0,75,0.00,,,0.00,LWC V2.00 B2112,2013-01-30 23:11:00,
2013-01-30 14:16:00,4.5,-1.4,29.76,NE,49,0.0,0.0,76,0.00,,,0.00,LWC V2.00 B2112,2013-01-30 23:16:00,
2013-01-30 14:21:00,4.5,-1.4,29.76,NE,49,0.0,0.0,76,0.00,,,0.00,LWC V2.00 B2112,2013-01-30 23:21:00,
2013-01-30 14:26:00,4.6,-1.5,29.76,NE,49,0.0,0.0,75,0.00,,,0.00,LWC V2.00 B2112,2013-01-30 23:26:00,
2013-01-30 14:31:00,4.7,-1.5,29.75,NE,49,0.0,0.0,75,0.00,,,0.00,LWC V2.00 B2112,2013-01-30 23:31:00,
2013-01-30 14:36:00,4.8,-1.4,29.76,NE,48,0.0,0.0,75,0.00,,,0.00,LWC V2.00 B2112,2013-01-30 23:36:00,
2013-01-30 14:41:00,4.9,-1.3,29.76,NE,49,0.0,0.0,75,0.00,,,0.00,LWC V2.00 B2112,2013-01-30 23:41:00,
2013-01-30 14:46:00,5.0,-1.2,29.76,NE,48,0.0,0.0,75,0.00,,,0.00,LWC V2.00 B2112,2013-01-30 23:46:00,
2013-01-30 14:51:00,5.0,-1.2,29.76,NE,48,0.0,0.0,75,0.00,,,0.00,LWC V2.00 B2112,2013-01-30 23:51:00,
2013-01-30 14:56:00,5.0,-1.2,29.75,NE,48,0.0,0.0,75,0.00,,,0.00,LWC V2.00 B2112,2013-01-30 23:56:00,
2013-01-30 15:01:00,5.0,-1.2,29.76,NE,49,0.0,0.0,75,0.00,,,0.00,LWC V2.00 B2112,2013-01-31 00:01:00,
2013-01-30 15:06:00,5.1,-0.8,29.75,NE,49,0.0,0.0,76,0.00,,,0.00,LWC V2.00 B2112,2013-01-31 00:06:00,
2013-01-30 15:11:00,5.1,-1.1,29.75,NE,48,0.0,0.0,75,0.00,,,0.00,LWC V2.00 B2112,2013-01-31 00:11:00,
2013-01-30 15:16:00,5.2,-1.0,29.75,NE,49,0.0,0.0,75,0.00,,,0.00,LWC V2.00 B2112,2013-01-31 00:16:00,
2013-01-30 15:21:00,5.2,-0.7,29.74,NE,49,0.0,0.0,76,0.00,,,0.00,LWC V2.00 B2112,2013-01-31 00:21:00,
2013-01-30 15:26:00,5.3,-0.9,29.74,NW,309,0.0,0.0,75,0.00,,,0.00,LWC V2.00 B2112,2013-01-31 00:26:00,
2013-01-30 15:31:00,5.4,-0.2,29.74,NW,308,0.0,0.0,77,0.00,,,0.00,LWC V2.00 B2112,2013-01-31 00:31:00,
2013-01-30 15:36:00,5.5,-0.4,29.74,NE,54,0.0,0.0,76,0.00,,,0.00,LWC V2.00 B2112,2013-01-31 00:36:00,
2013-01-30 15:41:00,5.6,-0.3,29.74,NNW,333,0.0,0.0,76,0.00,,,0.00,LWC V2.00 B2112,2013-01-31 00:41:00,
2013-01-30 15:46:00,5.6,-0.3,29.73,NNW,336,0.0,0.0,76,0.00,,,0.00,LWC V2.00 B2112,2013-01-31 00:46:00,
2013-01-30 15:51:00,5.7,-0.2,29.73,NNW,336,0.0,0.0,76,0.00,,,0.00,LWC V2.00 B2112,2013-01-31 00:51:00,
2013-01-30 15:56:00,5.8,0.2,29.72,NNW,336,0.0,0.0,77,0.00,,,0.00,LWC V2.00 B2112,2013-01-31 00:56:00,
2013-01-30 16:01:00,5.9,0.3,29.73,NNE,28,0.0,0.0,77,0.00,,,0.00,LWC V2.00 B2112,2013-01-31 01:01:00,
2013-01-30 16:06:00,5.9,0.3,29.72,NNE,28,0.0,0.0,77,0.00,,,0.00,LWC V2.00 B2112,2013-01-31 01:06:00,
2013-01-30 16:11:00,6.0,0.1,29.72,NNE,28,0.0,0.0,76,0.00,,,0.00,LWC V2.00 B2112,2013-01-31 01:11:00,
2013-01-30 16:16:00,6.0,0.1,29.72,NNE,26,0.0,0.0,76,0.00,,,0.00,LWC V2.00 B2112,2013-01-31 01:16:00,
2013-01-30 16:21:00,6.1,0.2,29.72,NNE,28,0.0,0.0,76,0.00,,,0.00,LWC V2.00 B2112,2013-01-31 01:21:00,
2013-01-30 16:26:00,6.1,0.2,29.72,NNE,28,0.0,0.0,76,0.00,,,0.00,LWC V2.00 B2112,2013-01-31 01:26:00,
2013-01-30 16:31:00,6.1,0.2,29.72,NNE,28,0.0,0.0,76,0.00,,,0.00,LWC V2.00 B2112,2013-01-31 01:31:00,
2013-01-30 16:36:00,6.1,0.2,29.72,NE,48,0.0,0.0,76,0.00,,,0.00,LWC V2.00 B2112,2013-01-31 01:36:00,
2013-01-30 16:41:00,6.2,0.6,29.71,NE,49,0.0,0.0,77,0.00,,,0.00,LWC V2.00 B2112,2013-01-31 01:41:00,
2013-01-30 16:46:00,6.2,0.6,29.71,NE,48,0.0,0.0,77,0.00,,,0.00,LWC V2.00 B2112,2013-01-31 01:46:00,
2013-01-30 16:51:00,6.2,0.6,29.71,NE,38,0.0,0.0,77,0.00,,,0.00,LWC V2.00 B2112,2013-01-31 01:51:00,
2013-01-30 16:56:00,6.2,0.6,29.71,WNW,299,0.0,0.0,77,0.00,,,0.00,LWC V2.00 B2112,2013-01-31 01:56:00,
2013-01-30 17:01:00,6.4,0.8,29.71,WNW,298,0.0,0.0,77,0.00,,,0.00,LWC V2.00 B2112,2013-01-31 02:01:00,
2013-01-30 17:06:00,6.5,1.4,29.70,WNW,298,0.0,0.0,79,0.00,,,0.00,LWC V2.00 B2112,2013-01-31 02:06:00,
2013-01-30 17:11:00,6.5,1.7,29.70,WNW,299,0.0,0.0,80,0.00,,,0.00,LWC V2.00 B2112,2013-01-31 02:11:00,
2013-01-30 17:16:00,6.4,1.8,29.70,SE,130,0.0,0.0,81,0.00,,,0.00,LWC V2.00 B2112,2013-01-31 02:16:00,
2013-01-30 17:21:00,6.5,1.9,29.71,SW,214,0.0,0.0,81,0.00,,,0.00,LWC V2.00 B2112,2013-01-31 02:21:00,
2013-01-30 17:26:00,6.5,1.9,29.70,SSW,211,0.0,0.0,81,0.00,,,0.00,LWC V2.00 B2112,2013-01-31 02:26:00,
2013-01-30 17:31:00,6.6,2.0,29.70,SE,126,0.0,0.0,81,0.00,,,0.00,LWC V2.00 B2112,2013-01-31 02:31:00,
2013-01-30 17:36:00,6.6,2.3,29.70,SE,127,0.0,0.0,82,0.00,,,0.00,LWC V2.00 B2112,2013-01-31 02:36:00,
2013-01-30 17:41:00,6.7,2.4,29.69,SE,127,0.0,0.0,82,0.00,,,0.00,LWC V2.00 B2112,2013-01-31 02:41:00,
2013-01-30 17:46:00,6.8,2.8,29.69,SW,214,0.0,0.0,83,0.00,,,0.00,LWC V2.00 B2112,2013-01-31 02:46:00,
2013-01-30 17:51:00,6.9,2.9,29.69,SW,214,0.0,0.0,83,0.00,,,0.00,LWC V2.00 B2112,2013-01-31 02:51:00,
2013-01-30 17:56:00,6.9,2.6,29.69,SW,214,0.0,0.0,82,0.00,,,0.00,LWC V2.00 B2112,2013-01-31 02:56:00,
2013-01-30 18:01:00,6.9,2.6,29.69,SW,214,0.0,0.0,82,0.00,,,0.00,LWC V2.00 B2112,2013-01-31 03:01:00,
2013-01-30 18:06:00,6.9,2.6,29.69,ENE,59,0.0,0.0,82,0.00,,,0.00,LWC V2.00 B2112,2013-01-31 03:06:00,
2013-01-30 18:11:00,6.9,2.6,29.69,SW,219,0.0,0.0,82,0.00,,,0.00,LWC V2.00 B2112,2013-01-31 03:11:00,
2013-01-30 18:16:00,7.0,2.7,29.69,SW,218,0.0,0.0,82,0.00,,,0.00,LWC V2.00 B2112,2013-01-31 03:16:00,
2013-01-30 18:21:00,7.1,3.0,29.69,SW,219,0.0,0.0,83,0.00,,,0.00,LWC V2.00 B2112,2013-01-31 03:21:00,
2013-01-30 18:26:00,7.2,3.1,29.69,SW,218,0.0,0.0,83,0.00,,,0.00,LWC V2.00 B2112,2013-01-31 03:26:00,
2013-01-30 18:31:00,7.3,3.0,29.69,SW,218,0.0,0.0,82,0.00,,,0.00,LWC V2.00 B2112,2013-01-31 03:31:00,
2013-01-30 18:36:00,7.5,3.2,29.69,SW,218,0.0,0.0,82,0.00,,,0.00,LWC V2.00 B2112,2013-01-31 03:36:00,
2013-01-30 18:41:00,7.6,3.3,29.69,SW,218,0.0,0.0,82,0.00,,,0.00,LWC V2.00 B2112,2013-01-31 03:41:00,
2013-01-30 18:46:00,7.6,3.3,29.69,SW,218,0.0,0.0,82,0.00,,,0.00,LWC V2.00 B2112,2013-01-31 03:46:00,
2013-01-30 18:51:00,7.7,3.4,29.68,SW,218,0.0,0.0,82,0.00,,,0.00,LWC V2.00 B2112,2013-01-31 03:51:00,
2013-01-30 18:56:00,7.8,3.5,29.69,SW,219,0.0,0.0,82,0.00,,,0.00,LWC V2.00 B2112,2013-01-31 03:56:00,
2013-01-30 19:01:00,7.9,3.6,29.69,SW,219,0.0,0.0,82,0.00,,,0.00,LWC V2.00 B2112,2013-01-31 04:01:00,
2013-01-30 19:06:00,8.1,4.0,29.68,SW,219,0.0,0.0,83,0.00,,,0.00,LWC V2.00 B2112,2013-01-31 04:06:00,
2013-01-30 19:11:00,8.2,3.9,29.69,SW,219,0.0,0.0,82,0.00,,,0.00,LWC V2.00 B2112,2013-01-31 04:11:00,
2013-01-30 19:16:00,8.4,4.3,29.68,SW,219,0.0,0.0,83,0.00,,,0.00,LWC V2.00 B2112,2013-01-31 04:16:00,
2013-01-30 19:21:00,8.4,4.1,29.68,SW,218,0.0,0.0,82,0.00,,,0.00,LWC V2.00 B2112,2013-01-31 04:21:00,
2013-01-30 19:26:00,8.3,4.2,29.68,SW,218,0.0,0.0,83,0.00,,,0.00,LWC V2.00 B2112,2013-01-31 04:26:00,
2013-01-30 19:31:00,8.1,4.0,29.68,SW,218,0.0,0.0,83,0.00,,,0.00,LWC V2.00 B2112,2013-01-31 04:31:00,
2013-01-30 19:36:00,8.0,3.9,29.68,SW,218,0.0,0.0,83,0.00,,,0.00,LWC V2.00 B2112,2013-01-31 04:36:00,
2013-01-30 19:41:00,7.9,3.8,29.68,SW,218,0.0,0.0,83,0.00,,,0.00,LWC V2.00 B2112,2013-01-31 04:41:00,
2013-01-30 19:46:00,7.8,3.7,29.68,SW,217,0.0,0.0,83,0.00,,,0.00,LWC V2.00 B2112,2013-01-31 04:46:00,
2013-01-30 19:51:00,7.8,3.7,29.68,SW,218,0.0,0.0,83,0.00,,,0.00,LWC V2.00 B2112,2013-01-31 04:51:00,
2013-01-30 19:56:00,7.8,3.5,29.68,SW,218,0.0,0.0,82,0.00,,,0.00,LWC V2.00 B2112,2013-01-31 04:56:00,
2013-01-30 20:01:00,7.9,3.8,29.69,SW,217,0.0,0.0,83,0.00,,,0.00,LWC V2.00 B2112,2013-01-31 05:01:00,
2013-01-30 20:06:00,8.0,3.9,29.68,SW,218,0.0,0.0,83,0.00,,,0.00,LWC V2.00 B2112,2013-01-31 05:06:00,
2013-01-30 20:11:00,8.1,4.0,29.68,SW,218,0.0,0.0,83,0.00,,,0.00,LWC V2.00 B2112,2013-01-31 05:11:00,
2013-01-30 20:16:00,8.2,4.1,29.68,SW,218,0.0,0.0,83,0.00,,,0.00,LWC V2.00 B2112,2013-01-31 05:16:00,
2013-01-30 20:21:00,8.3,4.5,29.68,SW,218,0.0,0.0,84,0.00,,,0.00,LWC V2.00 B2112,2013-01-31 05:21:00,
2013-01-30 20:26:00,8.3,4.2,29.68,SW,217,0.0,0.0,83,0.00,,,0.00,LWC V2.00 B2112,2013-01-31 05:26:00,
2013-01-30 20:31:00,8.3,4.5,29.69,SW,218,0.0,0.0,84,0.00,,,0.00,LWC V2.00 B2112,2013-01-31 05:31:00,
2013-01-30 20:36:00,8.5,4.7,29.69,SW,218,0.0,0.0,84,0.00,,,0.00,LWC V2.00 B2112,2013-01-31 05:36:00,
2013-01-30 20:41:00,8.6,4.8,29.69,SW,218,0.0,0.0,84,0.00,,,0.00,LWC V2.00 B2112,2013-01-31 05:41:00,
2013-01-30 20:46:00,8.7,4.6,29.68,SW,218,0.0,0.0,83,0.00,,,0.00,LWC V2.00 B2112,2013-01-31 05:46:00,
2013-01-30 20:51:00,8.9,4.8,29.68,SW,218,0.0,0.0,83,0.00,,,0.00,LWC V2.00 B2112,2013-01-31 05:51:00,
2013-01-30 20:56:00,9.0,4.9,29.69,SW,218,0.0,0.0,83,0.00,,,0.00,LWC V2.00 B2112,2013-01-31 05:56:00,
2013-01-30 21:01:00,9.0,4.9,29.68,SW,218,0.0,0.0,83,0.00,,,0.00,LWC V2.00 B2112,2013-01-31 06:01:00,
2013-01-30 21:06:00,8.9,4.8,29.69,SW,218,0.0,0.0,83,0.00,,,0.00,LWC V2.00 B2112,2013-01-31 06:06:00,
2013-01-30 21:11:00,8.8,4.7,29.69,SW,218,0.0,0.0,83,0.00,,,0.00,LWC V2.00 B2112,2013-01-31 06:11:00,
2013-01-30 21:16:00,8.7,4.6,29.68,SW,218,0.0,0.0,83,0.00,,,0.00,LWC V2.00 B2112,2013-01-31 06:16:00,
2013-01-30 21:21:00,8.7,4.6,29.68,SW,218,0.0,0.0,83,0.00,,,0.00,LWC V2.00 B2112,2013-01-31 06:21:00,
2013-01-30 21:26:00,8.6,4.5,29.69,SW,218,0.0,0.0,83,0.00,,,0.00,LWC V2.00 B2112,2013-01-31 06:26:00,
2013-01-30 21:31:00,8.5,4.4,29.69,SW,218,0.0,0.0,83,0.00,,,0.00,LWC V2.00 B2112,2013-01-31 06:31:00,
2013-01-30 21:36:00,8.4,4.3,29.68,SW,218,0.0,0.0,83,0.00,,,0.00,LWC V2.00 B2112,2013-01-31 06:36:00,
2013-01-30 21:41:00,8.2,4.4,29.68,SW,218,0.0,0.0,84,0.00,,,0.00,LWC V2.00 B2112,2013-01-31 06:41:00,
2013-01-30 21:46:00,8.0,4.2,29.68,SW,218,0.0,0.0,84,0.00,,,0.00,LWC V2.00 B2112,2013-01-31 06:46:00,
2013-01-30 21:51:00,7.7,3.9,29.68,SW,217,0.0,0.0,84,0.00,,,0.00,LWC V2.00 B2112,2013-01-31 06:51:00,
2013-01-30 21:56:00,7.4,3.6,29.69,SW,218,0.0,0.0,84,0.00,,,0.00,LWC V2.00 B2112,2013-01-31 06:56:00,
2013-01-30 22:01:00,7.3,3.5,29.69,SW,218,0.0,0.0,84,0.00,,,0.00,LWC V2.00 B2112,2013-01-31 07:01:00,
2013-01-30 22:06:00,7.2,3.7,29.68,SW,218,0.0,0.0,85,0.00,,,0.00,LWC V2.00 B2112,2013-01-31 07:06:00,
2013-01-30 22:11:00,7.1,3.6,29.69,SW,218,0.0,0.0,85,0.00,,,0.00,LWC V2.00 B2112,2013-01-31 07:11:00,
2013-01-30 22:16:00,6.9,3.4,29.69,SW,218,0.0,0.0,85,0.00,,,0.00,LWC V2.00 B2112,2013-01-31 07:16:00,
2013-01-30 22:21:00,6.8,3.0,29.69,SW,218,0.0,0.0,84,0.00,,,0.00,LWC V2.00 B2112,2013-01-31 07:21:00,
2013-01-30 22:26:00,6.6,2.8,29.69,SW,218,0.0,0.0,84,0.00,,,0.00,LWC V2.00 B2112,2013-01-31 07:26:00,
2013-01-30 22:31:00,6.4,2.6,29.69,SW,217,0.0,0.0,84,0.00,,,0.00,LWC V2.00 B2112,2013-01-31 07:31:00,
2013-01-30 22:36:00,6.2,2.4,29.69,SW,226,0.0,0.0,84,0.00,,,0.00,LWC V2.00 B2112,2013-01-31 07:36:00,
2013-01-30 22:41:00,5.9,1.9,29.69,SW,226,0.0,0.0,83,0.00,,,0.00,LWC V2.00 B2112,2013-01-31 07:41:00,
2013-01-30 22:46:00,5.7,1.9,29.69,SW,226,0.0,0.0,84,0.00,,,0.00,LWC V2.00 B2112,2013-01-31 07:46:00,
2013-01-30 22:51:00,5.6,1.8,29.69,SW,227,0.0,0.0,84,0.00,,,0.00,LWC V2.00 B2112,2013-01-31 07:51:00,
2013-01-30 22:56:00,5.7,1.9,29.69,SW,226,0.0,0.0,84,0.00,,,0.00,LWC V2.00 B2112,2013-01-31 07:56:00,
2013-01-30 23:01:00,5.8,2.3,29.69,SW,228,0.0,0.0,85,0.00,,,0.00,LWC V2.00 B2112,2013-01-31 08:01:00,
2013-01-30 23:06:00,5.8,2.3,29.69,SW,229,0.0,0.0,85,0.00,,,0.00,LWC V2.00 B2112,2013-01-31 08:06:00,
2013-01-30 23:11:00,5.8,2.3,29.69,WSW,242,0.0,0.0,85,0.00,,,0.00,LWC V2.00 B2112,2013-01-31 08:11:00,
2013-01-30 23:16:00,5.9,2.4,29.69,South,186,0.0,0.0,85,0.00,,,0.00,LWC V2.00 B2112,2013-01-31 08:16:00,
2013-01-30 23:21:00,6.0,2.5,29.69,WSW,242,0.0,0.0,85,0.00,,,0.00,LWC V2.00 B2112,2013-01-31 08:21:00,
2013-01-30 23:26:00,6.2,2.4,29.69,WSW,242,0.0,0.0,84,0.00,,,0.00,LWC V2.00 B2112,2013-01-31 08:26:00,
2013-01-30 23:31:00,6.2,2.4,29.69,West,269,0.0,0.0,84,0.00,,,0.00,LWC V2.00 B2112,2013-01-31 08:31:00,
2013-01-30 23:36:00,6.0,2.0,29.69,WNW,294,0.0,0.0,83,0.00,,,0.00,LWC V2.00 B2112,2013-01-31 08:36:00,
2013-01-30 23:41:00,5.9,1.9,29.69,WNW,295,0.0,0.0,83,0.00,,,0.00,LWC V2.00 B2112,2013-01-31 08:41:00,
2013-01-30 23:46:00,5.5,1.2,29.70,WNW,295,0.0,0.0,82,0.00,,,0.00,LWC V2.00 B2112,2013-01-31 08:46:00,
2013-01-30 23:51:00,5.4,1.4,29.70,WNW,292,0.0,0.0,83,0.00,,,0.00,LWC V2.00 B2112,2013-01-31 08:51:00,
2013-01-30 23:56:00,5.2,1.2,29.70,WSW,247,0.0,0.0,83,0.00,,,0.00,LWC V2.00 B2112,2013-01-31 08:56:00,